Showing default

MT-CUBE-2, 53106

Orbit data source: Space-Track

MT-CUBE-2, 53106 is a French payload satellite that was launched on Wed, 13 Jul 2022 UTC via a VEGA C launch vehicle from the French Guiana (FRGUI). Payload-class satellites include a variety of spacecraft equipped with specific instruments for various scientific and technological missions. These include communications satellites like Starlink; space stations such as the ISS; scientific satellites like the Hubble; Earth observation satellites from companies like Planet Labs, Umbra, and HawkEye 360; GPS; miniature CubeSats for education and research; and military/defense satellites.

Loading next visibility...
Identifier
53106, 2022-080B
Orbit
Active
Last TLE update
5 months ago
Origin
Manufacturer
ENEA/UNF2
Mission
Non-operational Civil Science
Bus & Motor
CUBESAT 3U, Unknown motor
Mass
4 kg wet, 4 kg dry
Launch date (UTC)
2022-07-13 (3 years ago)
Launch vehicle
VEGA C
Launch site
French Guiana (FRGUI)
Object type
Payload
Rocket body
Debris
Shape & HBR
Box, 0.3 m
Radar Cross Section
0.035 m², Small (<0.1 m²)

Expand to show TLE details & history

TLE from 5 months ago
0 MT-CUBE-2
1 53106U 22080B   25051.21822557 -.00000003  00000-0  00000+0 0  9995
2 53106  70.1434 106.3440 0008542  48.0089 312.1297  6.42557744 61200
Epoch: 2025-02-20T05:14Z
TLE epoch observation values (Epoch: 2025-02-20T05:14:14.689Z)
Latitude
-0.00002°
Longitude
-122.61424°
Altitude
5,837.822 km
Speed
5.714 km/s
True Right ascension
07h 05m 22s
True Declination
0° 00' 00"
Sunlit
Object was in daylight at epoch
Visualization orbit readout
Latitude
-62.67487°
Longitude
144.90081°
Altitude
5,866.635 km
Speed
5.707 km/s
Apparent Right ascension
04h 09m 48s
Apparent Declination
-67° 25' 02"
Sunlit
Object is in daylight
Visualization observer readout
Local Sidereal Time
20:07:51
Azimuth
150.426° SSE
Elevation
-47.892°
Doppler factor
1
Orbital elements
Apogee altitude
5,852.703 km
Perigee altitude
5,831.826 km
Semi-major axis
12,220.401 km
Eccentricity
0.00085
Inclination
70.1434°
RAAN
106.344°
Arg. of periapsis
48.0089°
True anomaly
Unknown
Mean anomaly
312.1297°
Eccentric anomaly
Unknown
Mean motion
1.60663 °/min
Orbital period
224.07 mins
BSTAR
0
Loading maneuver chart data...
Loading SW <> Apogee altitude chart data...
Loading historical data...
Loading historical data...
Loading historical data...
Loading historical data...
Loading historical data...
Loading historical data...
Loading historical data...

MT-CUBE-2 Visibility forecast

Observer location: undefined°, undefined°

Span
Click to sort rows by Start time (UTC) header in descending order
Start Az.
Max El. time (UTC)
Max El. Az.
Max El.
End time (UTC)
End Az.
25 mins2025-07-09 12:40:16.884Z96.411° ESE2025-07-09 12:53:16.884Z69.437° E14.36°2025-07-09 13:05:16.884Z44.525° NE
62 mins2025-07-09 16:06:16.884Z191.916° SSW2025-07-09 16:36:16.884Z121.91° SE44.876°2025-07-09 17:08:16.884Z26.473° NE
57 mins2025-07-09 20:14:16.884Z275.722° WNW2025-07-09 20:42:16.884Z342.872° N30.657°2025-07-09 21:11:16.884Z51.176° ENE
62 mins2025-07-10 00:28:16.884Z330.391° NNW2025-07-10 00:59:16.884Z56.586° ENE41.19°2025-07-10 01:30:16.884Z135.416° SSE
52 mins2025-07-10 04:25:16.884Z330.422° NNW2025-07-10 04:50:16.884Z274.021° WNW32.693°2025-07-10 05:17:16.884Z212.143° SW
|